CDT,Max TemperatureF,Mean TemperatureF,Min TemperatureF,Max Dew PointF,MeanDew PointF,Min DewpointF,Max Humidity, Mean Humidity, Min Humidity, Max Sea Level PressureIn, Mean Sea Level PressureIn, Min Sea Level PressureIn, Max VisibilityMiles, Mean VisibilityMiles, Min VisibilityMiles, Max Wind SpeedMPH, Mean Wind SpeedMPH, Max Gust SpeedMPH,PrecipitationIn, CloudCover, Events, WindDirDegrees
2013-4-1,86,78,70,70,69,66,100,78,55,30.00,29.94,29.89,10,8,5,18,9,23,T,5,,116
2013-4-2,86,78,69,72,70,68,100,81,61,29.96,29.85,29.75,10,9,6,23,13,30,0.00,6,,125
2013-4-3,83,74,64,72,66,55,100,76,51,30.07,29.85,29.77,10,9,2,24,11,31,T,7,Rain,25
2013-4-4,77,67,57,56,52,48,86,62,38,30.17,30.11,30.06,10,10,10,17,9,23,0.00,4,,15
2013-4-5,76,64,51,56,53,49,100,72,43,30.26,30.17,30.09,10,10,10,16,6,22,0.00,0,,66
2013-4-6,81,70,59,62,59,56,90,70,49,30.09,29.99,29.89,10,10,9,33,14,39,0.00,2,,142
2013-4-7,83,75,66,68,64,62,87,69,51,29.94,29.86,29.79,10,10,10,28,16,36,0.00,5,,149
2013-4-8,84,77,70,72,69,66,93,74,55,29.84,29.73,29.65,10,10,7,29,19,37,0.00,6,,152
2013-4-9,90,81,72,72,70,67,100,75,50,29.73,29.66,29.59,10,8,5,36,23,41,0.00,6,,151
2013-4-10,93,78,62,72,70,62,100,75,49,29.76,29.65,29.59,10,9,6,32,17,38,0.01,6,Rain,149
2013-4-11,73,64,54,63,54,49,100,74,47,29.94,29.86,29.78,10,9,4,22,11,29,T,5,Rain,6
2013-4-12,81,68,55,62,58,53,100,73,45,29.94,29.89,29.86,10,10,10,20,8,24,0.00,2,,93
2013-4-13,80,72,63,67,63,59,93,73,52,29.94,29.81,29.73,10,10,10,22,10,29,T,4,Rain,109
2013-4-14,91,80,69,72,69,66,97,72,47,29.78,29.74,29.66,10,10,7,22,8,26,T,6,,137
2013-4-15,90,81,71,72,70,67,93,72,50,29.81,29.74,29.67,10,7,4,26,16,36,0.00,4,,148
2013-4-16,90,82,73,74,72,69,93,73,52,29.84,29.78,29.75,10,7,4,33,16,41,0.01,6,,145
2013-4-17,90,83,76,74,73,72,94,77,59,29.85,29.76,29.66,10,9,7,30,21,37,0.00,7,,151
2013-4-18,99,82,64,73,68,52,88,62,35,29.99,29.71,29.62,10,9,2,32,20,39,0.00,6,,116
2013-4-19,70,61,52,53,44,37,71,53,34,30.30,30.18,30.01,10,10,10,24,12,37,0.00,5,,15
2013-4-20,77,63,48,53,46,40,86,58,29,30.23,30.13,30.03,10,10,10,17,6,23,0.00,0,,89
2013-4-21,83,71,58,66,60,54,90,67,43,30.08,30.03,29.99,10,10,10,16,8,21,0.00,3,,102
2013-4-22,86,78,69,70,67,66,93,74,55,30.06,30.00,29.92,10,10,10,20,11,24,0.00,5,,120
2013-4-23,85,78,70,72,70,68,93,79,65,29.95,29.87,29.78,10,10,10,30,16,36,0.00,7,,139
2013-4-24,77,65,52,72,65,32,100,93,86,30.19,30.02,29.90,10,8,3,22,11,30,0.12,7,Rain,28
2013-4-25,68,62,56,68,61,32,100,87,73,30.21,30.16,30.11,10,6,1,16,9,21,0.27,8,Rain,309
2013-4-26,88,75,62,72,68,62,100,78,55,30.16,30.08,30.00,10,7,0,29,13,35,0.00,6,Fog,152
2013-4-27,87,80,73,72,70,67,93,72,51,30.06,29.98,29.88,10,10,9,23,14,29,0.00,5,,134
2013-4-28,78,71,64,73,71,64,100,87,74,29.99,29.92,29.83,10,7,0,30,11,40,2.65,7,Fog-Rain-Thunderstorm,87
2013-4-29,83,76,68,72,69,66,97,82,67,29.93,29.85,29.77,10,10,6,20,7,23,0.05,6,Rain,59
2013-4-30,86,77,67,74,71,66,100,83,65,29.81,29.76,29.69,10,8,0,15,7,20,0.00,6,Fog,96